[[{"header":{"parameterUnit":"m.s-1","parameterCategory":1,"la1":30.2991,"la2":30.254,"lo1":-89.0895,"lo2":-89.0444,"dy":0.0017,"dx":0.0017,"nx":28,"ny":28,"refTime":"2024-06-10T09:00:00:Z","depth":0,"parameterNumber":2,"parameterNumberName":"U-component_of_WINDS"},"data":[0,0,0,0,0,0,0,0,0,0,0,0,0,0,0,0,0,0,0,0,0,0,0,0,0,0,0,0,0,0,0,0,0,0,0,0,0,0,0,0,0,0,0,0,0,0,0,0,0,0,0,0,0,0,0,0,0,0,-4.1883,-4.1882,0,-4.1849,-4.1849,-4.1848,-4.1744,-4.1742,-4.174,-4.1737,-4.1705,-4.1707,-4.1708,0,0,0,0,0,0,0,0,0,0,0,0,0,-4.1859,-4.186,-4.1883,-4.1882,-4.1882,-4.1849,-4.1849,-4.1848,-4.1745,-4.1742,-4.1739,-4.1736,-4.1705,-4.1706,-4.1708,0,0,0,0,0,0,0,0,0,0,0,0,0,-4.1852,-4.1861,-4.1883,-4.1826,-4.1821,-4.1849,-4.1849,-4.1848,-4.1745,-4.1742,-4.1738,-4.1735,-4.1704,-4.1706,-4.1708,-4.179,0,0,-4.1714,-4.1715,0,0,0,0,0,0,0,0,-4.1853,-4.1853,-4.1835,-4.183,-4.1824,-4.1797,-4.1829,-4.1829,-4.1746,-4.1774,-4.1737,-4.1733,-4.1739,-4.1738,-4.1739,-4.1788,-4.1787,-4.1714,-4.1715,-4.1716,-4.1717,0,0,0,0,0,0,0,-4.1853,-4.1854,-4.1869,-4.1835,-4.1828,-4.1803,-4.1798,-4.1828,-4.1776,-4.1771,-4.1764,-4.1761,-4.1735,-4.1738,-4.1738,-4.1786,-4.1714,-4.1716,-4.1717,-4.1718,-4.1901,-4.1905,0,0,0,0,0,0,-4.1862,-4.1855,-4.187,-4.1868,-4.183,-4.1806,-4.1801,-4.1809,-4.1776,-4.1767,-4.1764,-4.1756,-4.1736,-4.1735,-4.1736,-4.183,-4.1716,-4.1718,-4.1719,-4.1898,-4.1902,-4.1906,0,0,0,0,0,0,-4.1862,-4.1864,-4.1872,-4.186,-4.1859,-4.181,-4.1821,-4.1811,-4.1813,-4.177,-4.1761,-4.1776,-4.1733,-4.1733,-4.1777,-4.1827,-4.1719,-4.1721,-4.1893,-4.1899,-4.1904,-4.2018,0,0,0,0,0,0,-4.1861,-4.1865,-4.1894,-4.1861,-4.186,-4.1913,-4.1824,-4.1812,-4.1816,-4.1806,-4.1779,-4.1771,-4.173,-4.1775,-4.1779,-4.1828,-4.1722,-4.1888,-4.1896,-4.1902,-4.2009,-4.2026,-4.2041,0,0,0,0,0,-4.1861,-4.1928,-4.1896,-4.1899,-4.1896,-4.1916,-4.1915,-4.1867,-4.182,-4.185,-4.1823,-4.1772,-4.1821,-4.178,-4.1784,-4.1834,-4.1885,-4.1894,-4.1902,-4.2002,-4.2023,-4.2041,0,0,0,0,0,0,-4.1969,-4.1923,-4.1887,-4.1945,-4.1935,-4.1898,-4.1935,-4.189,-4.1894,-4.1884,-4.1825,-4.182,-4.1872,-4.1857,-4.1813,-4.1912,-4.1844,-4.1854,-4.1919,-4.1939,-4.1955,-4.1957,-4.1724,0,0,0,0,0,-4.2,-4.2019,-4.1977,-4.2033,-4.203,-4.1984,-4.199,-4.1954,-4.1942,-4.1937,-4.1913,-4.1904,-4.1917,-4.1927,-4.1937,-4.2006,-4.2,-4.2043,-4.2059,-4.2072,-4.2081,-4.2118,-4.2137,-4.1933,-4.1933,-4.1933,0,0,-4.2063,-4.204,-4.2056,-4.2054,-4.2042,-4.2065,-4.1981,-4.2008,-4.2024,-4.1941,-4.1981,-4.1963,-4.1949,-4.2006,-4.203,-4.1996,-4.2136,-4.2083,-4.2094,-4.2096,-4.2129,-4.2148,-4.2165,-4.1939,-4.1938,-4.1937,0,0,-4.219,-4.2174,-4.2219,-4.2209,-4.2191,-4.216,-4.2171,-4.2141,-4.2126,-4.2165,-4.2104,-4.2123,-4.2147,-4.2139,-4.2139,-4.2264,-4.2217,-4.2269,-4.2353,-4.2389,-4.2405,-4.2419,-4.2465,-4.2482,-4.2278,-4.2279,-4.2279,0,-4.2271,-4.2302,-4.2248,-4.2279,-4.2281,-4.2206,-4.2252,-4.2245,-4.2232,-4.2235,-4.2196,-4.2225,-4.221,-4.2266,-4.2296,-4.2298,-4.2309,-4.2272,-4.2407,-4.2421,-4.2433,-4.2476,-4.2493,-4.2285,-4.2284,-4.2284,-4.2283,0,-4.2403,-4.2425,-4.2464,-4.2453,-4.2458,-4.2497,-4.245,-4.2462,-4.2426,-4.2399,-4.244,-4.242,-4.2425,-4.2435,-4.24,-4.2486,-4.2465,-4.2418,-4.2349,-4.246,-4.2499,-4.2515,-4.2294,-4.2292,-4.229,-4.2288,0,0,-4.2597,-4.2556,-4.2571,-4.2566,-4.2542,-4.2558,-4.2594,-4.2598,-4.2611,-4.2605,-4.2634,-4.2656,-4.2612,-4.2612,-4.2575,-4.2607,-4.2709,-4.2556,-4.2554,-4.2586,-4.2804,-4.284,-4.286,-4.2678,-4.268,-4.2683,-4.2805,0,-4.2718,-4.2775,-4.2729,-4.2795,-4.2816,-4.2746,-4.2777,-4.2766,-4.2742,-4.2757,-4.2731,-4.2748,-4.2689,-4.2688,-4.2717,-4.2691,-4.2752,-4.2681,-4.2705,-4.2707,-4.2711,-4.288,-4.2918,-4.3035,-4.282,-4.2823,-4.2825,0,-4.2867,-4.2867,-4.2936,-4.2908,-4.2915,-4.2944,-4.2944,-4.2959,-4.2946,-4.2926,-4.2926,-4.2881,-4.2915,-4.2848,-4.2894,-4.2847,-4.2854,-4.2843,-4.2846,-4.2847,-4.2773,-4.2887,-4.3071,-4.3089,-4.2848,-4.2846,-4.2845,0,-4.3003,-4.3021,-4.3064,-4.3062,-4.303,-4.3052,-4.304,-4.3023,-4.3029,-4.303,-4.3033,-4.3039,-4.3042,-4.3047,-4.3005,-4.296,-4.3058,-4.2986,-4.3043,-4.3045,-4.3068,-4.3067,-4.3257,-4.3071,-4.3071,-4.3071,-4.307,0,-4.3143,-4.3188,-4.3125,-4.3152,-4.32,-4.3146,-4.3196,-4.3177,-4.3163,-4.3186,-4.3126,-4.3149,-4.3091,-4.3108,-4.3076,-4.312,-4.3122,-4.3108,-4.3099,-4.3114,-4.3116,-4.3118,-4.3109,-4.3075,-4.3074,-4.3073,-4.3073,0,-4.3303,-4.3262,-4.3305,-4.3272,-4.3265,-4.3303,-4.3274,-4.3298,-4.3271,-4.33,-4.3304,-4.3262,-4.3279,-4.3237,-4.3248,-4.3226,-4.329,-4.3268,-4.3295,-4.3288,-4.3348,-4.3343,-4.3546,-4.3571,-4.3369,-4.3371,-4.3373,0,-4.3396,-4.3429,-4.3399,-4.341,-4.3401,-4.3419,-4.3424,-4.3373,-4.3381,-4.3369,-4.3396,-4.3408,-4.3415,-4.3446,-4.3416,-4.3425,-4.3403,-4.3473,-4.3404,-4.3418,-4.3405,-4.3404,-4.3407,-4.3488,-4.349,-4.3492,-4.3494,0,-4.3565,-4.3543,-4.3553,-4.3557,-4.3565,-4.3566,-4.3562,-4.3574,-4.3519,-4.3532,-4.3549,-4.3554,-4.3566,-4.3579,-4.3581,-4.357,-4.3524,-4.3516,-4.353,-4.3546,-4.356,-4.3554,-4.3335,-4.3512,-4.351,-4.3509,-4.3508,-4.3507,-4.3694,-4.3721,-4.3704,-4.3718,-4.371,-4.3708,-4.3729,-4.3704,-4.3717,-4.3722,-4.3691,-4.3714,-4.3701,-4.3699,-4.3693,-4.3711,-4.3679,-4.3699,-4.3704,-4.371,-4.372,-4.3557,-4.3711,-4.3711,-4.371,-4.371,-4.3709,0,-4.3861,-4.3847,-4.386,-4.3857,-4.3868,-4.3822,-4.3816,-4.3829,-4.385,-4.3841,-4.385,-4.3869,-4.3882,-4.3854,-4.3863,-4.3883,-4.3862,-4.3887,-4.3886,-4.3884,-4.3748,-4.3736,-4.3904,-4.3904,-4.3904,-4.3904,-4.3904,-4.3904,-4.3949,-4.3992,-4.3968,-4.4007,-4.3992,-4.4014,-4.4015,-4.4014,-4.4006,-4.4031,-4.4041,-4.4022,-4.4006,-4.4013,-4.4024,-4.4015,-4.4022,-4.4054,-4.4039,-4.3912,-4.3893,-4.3875,-4.3863,-4.4056,-4.4056,-4.4173,-4.4174,-4.4175]},{"header":{"parameterUnit":"m.s-1","parameterCategory":1,"la1":30.2991,"la2":30.254,"lo1":-89.0895,"lo2":-89.0444,"dy":0.0017,"dx":0.0017,"nx":28,"ny":28,"refTime":"2024-06-10T09:00:00:Z","depth":0,"parameterNumber":3,"parameterNumberName":"V-component_of_WINDS"},"data":[0,0,0,0,0,0,0,0,0,0,0,0,0,0,0,0,0,0,0,0,0,0,0,0,0,0,0,0,0,0,0,0,0,0,0,0,0,0,0,0,0,0,0,0,0,0,0,0,0,0,0,0,0,0,0,0,0,0,-1.9076,-1.9076,0,-1.9111,-1.9111,-1.9111,-1.9095,-1.9094,-1.9093,-1.9092,-1.9127,-1.9129,-1.9131,0,0,0,0,0,0,0,0,0,0,0,0,0,-1.8994,-1.8995,-1.9076,-1.9076,-1.9077,-1.9111,-1.9111,-1.9111,-1.9095,-1.9094,-1.9093,-1.9092,-1.9127,-1.9129,-1.9131,0,0,0,0,0,0,0,0,0,0,0,0,0,-1.9029,-1.8996,-1.9076,-1.9072,-1.9073,-1.911,-1.9111,-1.9112,-1.9095,-1.9094,-1.9092,-1.9091,-1.9126,-1.9129,-1.9131,-1.9174,0,0,-1.9139,-1.9141,0,0,0,0,0,0,0,0,-1.9027,-1.9032,-1.9072,-1.9073,-1.9073,-1.9097,-1.9095,-1.9133,-1.9095,-1.9087,-1.9092,-1.9091,-1.9118,-1.9122,-1.9131,-1.9176,-1.9178,-1.914,-1.9141,-1.9142,-1.9143,0,0,0,0,0,0,0,-1.9025,-1.903,-1.909,-1.9073,-1.9073,-1.9069,-1.9072,-1.9102,-1.9109,-1.9087,-1.9086,-1.909,-1.9118,-1.9128,-1.9132,-1.9178,-1.914,-1.9142,-1.9144,-1.9145,-1.9259,-1.9261,0,0,0,0,0,0,-1.9022,-1.9028,-1.9088,-1.9091,-1.9046,-1.9071,-1.9075,-1.9091,-1.9109,-1.9111,-1.9092,-1.909,-1.9125,-1.9129,-1.9133,-1.9184,-1.9142,-1.9145,-1.9146,-1.9258,-1.926,-1.9261,0,0,0,0,0,0,-1.9021,-1.9028,-1.9087,-1.9059,-1.9066,-1.9074,-1.9091,-1.9092,-1.9102,-1.9112,-1.9114,-1.9101,-1.9124,-1.9129,-1.9164,-1.9185,-1.9146,-1.9148,-1.9256,-1.9259,-1.9261,-1.9288,0,0,0,0,0,0,-1.9018,-1.9027,-1.9044,-1.906,-1.9068,-1.9118,-1.9093,-1.9094,-1.9107,-1.9105,-1.9121,-1.9123,-1.9123,-1.916,-1.9167,-1.9188,-1.9151,-1.9254,-1.9257,-1.926,-1.9285,-1.9291,-1.9295,0,0,0,0,0,-1.9016,-1.9051,-1.9045,-1.9052,-1.9089,-1.9119,-1.9124,-1.9124,-1.9109,-1.9125,-1.9132,-1.9122,-1.9182,-1.9164,-1.9171,-1.9194,-1.9253,-1.9256,-1.926,-1.9283,-1.929,-1.9295,0,0,0,0,0,0,-1.9037,-1.9053,-1.9047,-1.9088,-1.9103,-1.9117,-1.9138,-1.9131,-1.915,-1.9147,-1.9146,-1.9149,-1.9186,-1.9193,-1.9173,-1.9236,-1.9215,-1.922,-1.923,-1.9237,-1.9242,-1.924,-1.9153,0,0,0,0,0,-1.9047,-1.907,-1.9082,-1.9117,-1.9125,-1.913,-1.9143,-1.9142,-1.9157,-1.9163,-1.9172,-1.9186,-1.9208,-1.9223,-1.9243,-1.9286,-1.9289,-1.9305,-1.931,-1.9314,-1.9318,-1.9341,-1.9348,-1.9272,-1.9272,-1.9272,0,0,-1.9067,-1.9078,-1.9093,-1.9122,-1.9133,-1.9157,-1.9135,-1.9162,-1.918,-1.9167,-1.92,-1.9207,-1.9223,-1.9262,-1.9279,-1.9269,-1.934,-1.9318,-1.9321,-1.9324,-1.9345,-1.9352,-1.9359,-1.9274,-1.9274,-1.9274,0,0,-1.9116,-1.9127,-1.9157,-1.9169,-1.9186,-1.9189,-1.9196,-1.9211,-1.9215,-1.9249,-1.9239,-1.926,-1.9298,-1.931,-1.9321,-1.9373,-1.9365,-1.9379,-1.9407,-1.9429,-1.9435,-1.944,-1.9459,-1.9466,-1.9384,-1.9384,-1.9384,0,-1.9139,-1.9175,-1.9174,-1.9201,-1.9214,-1.9203,-1.9233,-1.9244,-1.9267,-1.9276,-1.9264,-1.9311,-1.9321,-1.9362,-1.9375,-1.9384,-1.9392,-1.9378,-1.9434,-1.9439,-1.9444,-1.9462,-1.9469,-1.9385,-1.9385,-1.9385,-1.9385,0,-1.9203,-1.9228,-1.925,-1.9272,-1.9288,-1.9316,-1.9319,-1.9334,-1.9331,-1.9335,-1.9369,-1.938,-1.9403,-1.9412,-1.9409,-1.9453,-1.9446,-1.9434,-1.9413,-1.9453,-1.947,-1.9477,-1.9388,-1.9387,-1.9387,-1.9386,0,0,-1.9268,-1.9288,-1.9296,-1.9306,-1.9323,-1.9343,-1.937,-1.9392,-1.9406,-1.9421,-1.9444,-1.9476,-1.9465,-1.9477,-1.9476,-1.9495,-1.9535,-1.948,-1.9481,-1.949,-1.9584,-1.9593,-1.9601,-1.953,-1.9531,-1.9532,-1.9582,0,-1.9318,-1.9367,-1.9366,-1.9411,-1.9434,-1.9423,-1.9447,-1.946,-1.9465,-1.9484,-1.9489,-1.9511,-1.9495,-1.9502,-1.9521,-1.9526,-1.9554,-1.9523,-1.9551,-1.9552,-1.9548,-1.9609,-1.9619,-1.9667,-1.9589,-1.959,-1.9591,0,-1.9384,-1.9402,-1.945,-1.9463,-1.9472,-1.9494,-1.9514,-1.9533,-1.9547,-1.9549,-1.9562,-1.9557,-1.9585,-1.9562,-1.96,-1.9579,-1.959,-1.9594,-1.9596,-1.9599,-1.9574,-1.9615,-1.9682,-1.9689,-1.9601,-1.96,-1.9599,0,-1.9427,-1.9463,-1.9496,-1.9504,-1.9521,-1.9536,-1.9544,-1.9556,-1.957,-1.9587,-1.9595,-1.9615,-1.9626,-1.9642,-1.9642,-1.9625,-1.968,-1.9657,-1.9682,-1.9682,-1.9695,-1.9694,-1.9765,-1.9701,-1.9701,-1.9701,-1.9701,0,-1.9484,-1.9513,-1.9515,-1.9536,-1.9568,-1.9566,-1.9598,-1.9604,-1.9615,-1.9636,-1.9628,-1.9648,-1.9646,-1.9666,-1.9666,-1.9698,-1.9703,-1.9705,-1.9704,-1.9706,-1.9705,-1.9714,-1.971,-1.9703,-1.9702,-1.9702,-1.9702,0,-1.9538,-1.954,-1.9575,-1.9588,-1.9591,-1.9615,-1.9625,-1.9644,-1.9647,-1.9674,-1.968,-1.9685,-1.9708,-1.9709,-1.9735,-1.9735,-1.9773,-1.9769,-1.9769,-1.9768,-1.9793,-1.979,-1.9872,-1.9882,-1.9811,-1.9812,-1.9812,0,-1.9574,-1.9597,-1.9611,-1.9625,-1.9633,-1.9655,-1.9668,-1.9666,-1.9681,-1.9698,-1.9715,-1.9737,-1.9754,-1.9791,-1.9797,-1.9817,-1.9813,-1.984,-1.9816,-1.9817,-1.9814,-1.9813,-1.9815,-1.9845,-1.9846,-1.9847,-1.9847,0,-1.9639,-1.9638,-1.9658,-1.9678,-1.9694,-1.9709,-1.9724,-1.9735,-1.9735,-1.9751,-1.9774,-1.9788,-1.9815,-1.9837,-1.9856,-1.9863,-1.9855,-1.9855,-1.9861,-1.9863,-1.9862,-1.9863,-1.9782,-1.9853,-1.9852,-1.9852,-1.9852,-1.9851,-1.9685,-1.9704,-1.9717,-1.9739,-1.975,-1.9763,-1.9782,-1.9787,-1.9806,-1.9828,-1.9826,-1.9851,-1.9864,-1.9889,-1.9898,-1.9917,-1.9908,-1.9918,-1.9921,-1.9923,-1.9926,-1.9858,-1.9921,-1.9921,-1.9921,-1.992,-1.992,0,-1.9749,-1.9757,-1.9777,-1.9797,-1.9814,-1.9805,-1.982,-1.9835,-1.9858,-1.987,-1.9888,-1.9914,-1.9935,-1.9942,-1.9962,-1.9977,-1.9973,-1.9982,-1.9981,-1.9983,-1.9933,-1.9925,-1.9984,-1.9984,-1.9984,-1.9984,-1.9984,-1.9984,-1.9785,-1.9817,-1.9818,-1.9855,-1.9862,-1.9888,-1.9897,-1.9909,-1.9919,-1.9949,-1.9966,-1.9971,-1.9981,-2.0001,-2.002,-2.0021,-2.0029,-2.0039,-2.0039,-1.9993,-1.9986,-1.998,-1.9973,-2.0041,-2.0041,-2.0088,-2.0088,-2.0089]}]]